CW1675 Weather Reports


Display with metric or nautical units.
time (UTC)temp
F
wind
direction
speed
MPH
gust
MPH
rain 1hr
in
rain 24hr
in
rain mn
in
humidity
%
barometer
mb
20260505172337 52 20 2.0 9.0 0.05 0.06 0.06 96 1008.7
20260505170836 52 15 2.0 6.0 0.04 0.05 0.05 96 1008.7
20260505170343 53 34 2.0 5.0 0.03 0.04 0.04 96 1008.7
20260505165339 53 356 3.0 6.0 0.02 0.03 0.03 96 1008.8
20260505163836 53 22 3.0 7.0 0.00 0.01 0.01 95 1008.9
20260505163337 53 354 3.0 6.0 0.00 0.01 0.01 95 1008.9
20260505161836 53 57 2.0 5.0 0.00 0.01 0.01 95 1008.8
20260505160337 54 56 2.0 6.0 0.00 0.01 0.01 95 1008.9
20260505152838 54 35 3.0 9.0 0.00 0.03 0.01 95 1009.0
20260505151837 54 24 3.0 10.0 0.00 0.03 0.01 95 1009.0
20260505151336 54 25 3.0 8.0 0.00 0.03 0.01 95 1009.0
20260505150836 54 27 4.0 8.0 0.00 0.03 0.01 95 1009.0
20260505150337 54 7 5.0 7.0 0.00 0.04 0.01 95 1009.0
20260505121836 57 21 6.0 7.0 0.01 0.16 0.01 95 1009.6
20260505115838 57 20 5.0 9.0 0.01 0.16 0.01 94 1009.6
20260505115336 57 41 5.0 7.0 0.00 0.15 0.00 93 1009.7
20260505114836 57 3 5.0 7.0 0.00 0.15 0.00 93 1009.7
20260505114336 58 33 5.0 10.0 0.00 0.15 0.00 92 1009.7
20260505112336 59 44 2.0 9.0 0.00 0.15 0.00 89 1009.7
20260505111836 59 81 1.0 5.0 0.00 0.15 0.00 90 1009.7
20260505111336 59 74 0.0 5.0 0.00 0.15 0.00 90 1009.7
20260505110836 59 78 1.0 5.0 0.00 0.15 0.00 90 1009.8
20260505101836 59 34 2.0 3.0 0.00 0.15 0.00 88 1009.9
20260505100835 59 43 1.0 6.0 0.00 0.15 0.00 89 1010.0
20260505100336 59 42 0.0 5.0 0.00 0.15 0.00 90 1010.0
20260505095838 59 19 0.0 5.0 0.00 0.15 0.00 89 1010.0
20260505095336 59 60 0.0 2.0 0.00 0.15 0.00 90 1010.0
20260505094836 59 120 0.0 2.0 0.00 0.15 0.00 90 1010.0
20260505094337 58 157 0.0 2.0 0.00 0.15 0.00 91 1010.0
20260505093836 58 157 0.0 1.0 0.00 0.15 0.00 91 1010.0
20260505092838 58 177 0.0 3.0 0.00 0.15 0.00 91 1010.0
20260505085336 58 134 0.0 2.0 0.00 0.15 0.00 92 1010.2
20260505084836 58 93 0.0 2.0 0.00 0.15 0.00 93 1010.2
20260505082839 57 77 0.0 2.0 0.00 0.15 0.00 94 1010.3
20260505082336 57 59 0.0 2.0 0.00 0.15 0.00 95 1010.3
20260505081836 57 64 0.0 2.0 0.00 0.15 0.00 95 1010.3
20260505080836 57 301 0.0 0.0 0.00 0.15 0.00 95 1010.4
20260505073844 56 306 0.0 2.0 0.00 0.15 0.00 98 1010.4
20260505073335 56 180 0.0 2.0 0.00 0.15 0.00 98 1010.4
20260505072839 56 185 0.0 3.0 0.00 0.15 0.00 98 1010.4
20260505071836 56 295 0.0 2.0 0.00 0.15 0.00 99 1010.6
20260505071336 56 274 0.0 3.0 0.00 0.15 0.00 98 1010.6
20260505070336 55 119 0.0 2.0 0.00 0.15 0.00 99 1010.6
20260505065838 55 119 0.0 2.0 0.00 0.15 0.00 99 1010.6
20260505064836 55 112 0.0 1.0 0.00 0.15 0.00 99 1010.6
20260505064336 55 107 0.0 3.0 0.00 0.15 0.00 99 1010.6
20260505063836 55 48 0.0 2.0 0.00 0.15 0.00 99 1010.7
20260505063336 55 157 0.0 3.0 0.00 0.15 0.00 99 1010.7
20260505062840 55 281 0.0 5.0 0.00 0.15 0.00 99 1010.7
20260505062335 55 108 0.0 5.0 0.00 0.15 0.00 99 1010.7
20260505061836 55 130 0.0 0.0 0.00 0.15 0.00 99 1010.7
20260505061336 54 130 0.0 2.0 0.00 0.15 0.00 99 1010.7
20260505055838 54 186 0.0 2.0 0.00 0.15 0.00 99 1010.8
20260505054836 54 137 0.0 1.0 0.00 0.15 0.00 99 1010.8
20260505053835 54 139 0.0 2.0 0.00 0.15 0.00 99 1010.8
20260505053336 54 139 0.0 2.0 0.00 0.15 0.00 99 1010.8
20260505051836 54 103 0.0 0.0 0.00 0.15 0.00 99 1010.8
20260505051335 54 103 0.0 1.0 0.00 0.15 0.00 99 1010.8
20260505050336 53 87 0.0 0.0 0.00 0.15 0.00 99 1010.8
20260505041336 53 81 0.0 2.0 0.00 0.15 0.00 98 1010.8
20260505040835 53 278 0.0 0.0 0.00 0.15 0.00 98 1010.7
20260505035837 53 278 0.0 0.0 0.00 0.15 0.00 98 1010.7
20260505035336 53 278 0.0 0.0 0.00 0.15 0.00 98 1010.9
20260505034836 53 278 0.0 0.0 0.00 0.15 0.00 98 1010.9
20260505033336 53 278 0.0 0.0 0.00 0.15 0.00 98 1011.0
20260505032336 53 278 0.0 0.0 0.00 0.15 0.00 98 1011.1
20260505031336 53 278 0.0 0.0 0.00 0.15 0.00 98 1011.1
20260505030335 53 278 0.0 0.0 0.00 0.15 0.00 98 1011.3
20260505022837 53 278 0.0 0.0 0.00 0.15 0.00 98 1011.6
20260505020835 53 278 0.0 0.0 0.00 0.15 0.00 98 1011.5
20260505020336 53 278 0.0 0.0 0.00 0.15 0.00 98 1011.5
20260505014336 53 278 0.0 0.0 0.00 0.15 0.00 98 1011.5
20260505013835 54 278 0.0 0.0 0.00 0.15 0.00 98 1011.7
20260505012336 54 278 0.0 0.0 0.00 0.15 0.00 98 1011.7
20260505011336 54 278 0.0 0.0 0.00 0.15 0.00 97 1011.7
20260505010836 54 278 0.0 0.0 0.00 0.15 0.00 97 1011.7
20260505005336 54 278 0.0 2.0 0.00 0.15 0.00 97 1011.8
20260505004336 54 278 0.0 0.0 0.00 0.15 0.00 97 1011.8
20260505003836 54 278 0.0 0.0 0.00 0.15 0.00 97 1012.0
20260505003335 54 278 0.0 0.0 0.00 0.15 0.00 97 1012.0
20260505002838 54 278 0.0 0.0 0.00 0.15 0.00 97 1012.0
20260505002337 54 278 0.0 0.0 0.00 0.15 0.00 97 1012.1
20260505001835 54 278 0.0 0.0 0.00 0.15 0.00 97 1012.1
20260505001335 54 278 0.0 0.0 0.00 0.15 0.00 97 1012.1
20260505000335 54 278 0.0 0.0 0.00 0.15 0.00 97 1012.2
20260504235836 54 278 0.0 0.0 0.00 0.15 0.00 97 1012.2
20260504234335 54 278 0.0 0.0 0.00 0.15 0.00 97 1012.3
20260504232838 54 278 0.0 0.0 0.00 0.15 0.00 97 1012.4
20260504232335 54 278 0.0 0.0 0.00 0.15 0.00 97 1012.6
20260504231835 54 278 0.0 2.0 0.00 0.15 0.00 97 1012.6
20260504230836 54 278 0.0 2.0 0.00 0.15 0.00 97 1012.6
20260504230335 54 278 0.0 0.0 0.00 0.15 0.00 97 1012.6
20260504225837 54 278 0.0 0.0 0.00 0.15 0.00 97 1012.6
20260504223335 54 278 0.0 0.0 0.00 0.15 0.00 96 1012.9
20260504222838 54 278 0.0 0.0 0.00 0.15 0.00 96 1012.9
20260504222335 54 278 0.0 0.0 0.00 0.15 0.00 96 1013.0
20260504221836 54 278 0.0 0.0 0.00 0.15 0.00 96 1013.0
20260504220835 54 278 0.0 0.0 0.00 0.15 0.00 96 1013.1
20260504220337 54 278 0.0 0.0 0.00 0.15 0.00 96 1013.1
20260504214835 54 278 0.0 0.0 0.00 0.15 0.15 96 1013.3
20260504214336 55 278 0.0 0.0 0.00 0.15 0.15 96 1013.3
20260504213336 55 183 0.0 0.0 0.00 0.15 0.15 95 1013.3
20260504211836 55 183 0.0 0.0 0.00 0.15 0.15 95 1013.3
20260504210335 55 183 0.0 0.0 0.00 0.15 0.15 95 1013.4
20260504205336 55 183 0.0 0.0 0.00 0.15 0.15 95 1013.5
20260504203836 55 183 0.0 0.0 0.00 0.15 0.15 94 1013.7
20260504202837 55 183 0.0 0.0 0.00 0.15 0.15 94 1013.7
20260504202336 55 183 0.0 0.0 0.00 0.15 0.15 94 1013.7
20260504201835 55 183 0.0 0.0 0.00 0.15 0.15 94 1013.7
20260504201335 55 183 0.0 0.0 0.00 0.15 0.15 93 1013.7
20260504200840 55 183 0.0 0.0 0.00 0.15 0.15 93 1013.6
20260504200336 56 183 0.0 0.0 0.00 0.15 0.15 93 1013.6
20260504195841 56 183 1.0 0.0 0.00 0.15 0.15 93 1013.6
20260504195346 56 183 1.0 2.0 0.00 0.15 0.15 93 1013.5
20260504194835 56 183 1.0 3.0 0.00 0.15 0.15 92 1013.5
20260504193835 56 202 0.0 2.0 0.00 0.15 0.15 93 1013.5
20260504192837 56 115 0.0 2.0 0.00 0.15 0.15 92 1013.5
20260504191835 56 177 0.0 0.0 0.00 0.15 0.15 92 1013.4
20260504191335 56 177 0.0 0.0 0.00 0.15 0.15 91 1013.4
20260504190836 56 177 0.0 0.0 0.00 0.15 0.15 91 1013.4
20260504190335 56 177 0.0 2.0 0.00 0.15 0.15 91 1013.4
20260504184835 57 151 2.0 5.0 0.00 0.15 0.15 90 1013.3
20260504184336 57 151 2.0 5.0 0.00 0.15 0.15 90 1013.3
20260504183835 57 165 1.0 3.0 0.00 0.15 0.15 90 1013.4
20260504180335 57 213 0.0 3.0 0.00 0.15 0.15 91 1013.4
20260504175335 58 214 1.0 1.0 0.00 0.15 0.15 91 1013.4
20260504174335 58 222 1.0 5.0 0.00 0.15 0.15 90 1013.4
20260504173835 58 262 1.0 3.0 0.00 0.15 0.15 90 1013.6
20260504173335 58 178 1.0 7.0 0.00 0.15 0.15 90 1013.6